GFSFLT1_850_rhum_042.txt.gz
RH
52 49 48 46 47 52 67 79 81 75 84 96 96 87 71 65 65 66 67 70 72 72 70 70 67 64 62 59 59 60 61 59
60 60 59 62 68 80 90 85 84 93 91 90 71 70 65 55 48 48 55 61 64 63 60 58 60 61 63 68 68 60 44 29
85 87 89 87 91 85 71 56 60 63 68 64 58 52 42 36 40 41 43 44 46 53 62 67 71 73 71 60 48 38 29 24
67 67 62 58 47 40 40 41 46 47 44 41 38 36 39 46 50 51 53 55 60 69 74 76 72 59 54 49 45 41 39 29
60 48 42 40 41 42 43 40 40 37 37 40 41 45 50 53 55 58 63 66 69 70 62 57 55 54 54 48 37 36 38 43
48 47 48 43 46 48 50 50 50 47 48 51 52 53 56 59 62 65 71 63 58 55 54 56 59 60 44 36 50 58 63 69
49 51 49 49 54 56 56 58 59 56 57 57 56 57 58 61 63 58 49 43 40 42 51 54 57 51 31 48 62 68 78 78
51 53 56 60 62 63 62 61 61 58 58 59 59 59 58 53 49 43 30 32 36 41 47 54 59 56 32 45 59 69 75 84
56 61 64 66 66 67 63 60 59 58 60 58 57 53 48 43 42 40 35 41 46 47 52 58 60 60 44 68 77 81 82 81
60 62 64 65 65 59 59 58 57 58 57 55 53 50 49 47 48 47 48 51 54 59 63 69 63 60 79 92 85 77 78 70
54 58 62 58 56 56 56 56 57 56 54 56 56 52 52 54 54 53 56 58 61 69 74 66 66 59 82 84 76 74 71 66
57 59 57 58 57 56 59 59 57 57 59 54 54 56 56 57 53 55 58 61 70 80 76 68 71 70 77 76 80 69 66 62
61 60 60 60 56 49 45 47 56 56 55 56 57 62 60 60 57 63 64 66 62 81 79 79 89 89 79 90 75 68 63 66
63 59 54 48 41 39 41 43 46 49 54 59 50 39 30 35 54 55 48 54 64 72 81 84 94 94 96 83 75 64 65 68
54 48 43 43 43 41 47 50 49 45 37 32 29 29 35 42 44 45 46 49 58 70 83 86 100 95 97 78 87 70 71 74
45 42 43 45 45 43 41 36 32 32 34 30 35 41 47 48 50 53 49 57 73 83 97 98 99 96 85 88 82 75 76 76
42 48 53 43 34 32 31 32 36 35 31 35 44 48 51 56 62 57 48 65 96 98 81 92 95 96 90 86 81 78 76 65
50 51 41 32 32 33 36 38 35 30 34 43 48 55 60 65 69 56 52 81 100 97 89 84 84 78 88 87 83 74 67 66
52 40 31 33 35 38 36 33 30 29 33 40 59 65 70 75 75 67 63 93 80 80 81 77 80 90 94 84 74 69 66 58

GFSFLT1_850_rhum_048.txt.gz
RH
64 53 51 52 57 72 71 72 81 95 90 76 70 87 86 64 47 39 37 41 45 46 48 50 60 78 80 69 68 69 65 58
72 58 57 56 60 64 69 74 86 75 73 72 80 78 58 38 41 45 49 52 52 51 62 62 63 79 61 63 61 58 53 59
83 94 96 99 100 99 88 85 77 77 74 81 73 69 55 55 48 52 54 56 54 58 62 70 59 66 71 70 66 61 54 56
84 91 94 96 96 96 90 87 77 65 64 55 55 45 44 54 61 66 58 59 63 68 57 48 48 53 58 64 65 69 62 57
66 59 62 68 75 77 72 73 69 39 44 66 62 57 58 68 72 68 73 64 55 49 39 32 48 59 69 65 62 74 73 64
49 49 52 55 50 67 68 68 69 55 50 67 68 66 66 75 76 64 71 71 45 30 35 52 71 71 72 82 83 82 77 74
48 50 56 63 53 51 52 60 54 56 57 59 60 63 65 62 62 60 56 58 58 64 66 72 77 79 83 85 87 85 83 81
51 55 58 63 68 66 67 72 70 61 62 61 60 57 59 59 60 55 54 48 51 56 65 71 71 74 90 90 85 86 87 86
52 55 60 64 70 71 71 72 66 63 61 58 59 62 59 59 59 58 56 58 61 66 74 78 84 85 89 92 92 88 90 93
56 60 64 69 73 76 78 74 68 62 57 56 55 56 59 60 61 71 73 79 74 76 86 87 84 86 90 90 91 90 88 91
58 64 74 75 78 82 72 67 59 57 54 55 56 61 62 62 66 72 69 67 68 73 72 70 71 79 86 87 87 80 87 88
64 68 73 75 73 69 62 58 55 54 56 59 60 57 49 52 57 56 55 57 53 53 56 64 70 75 86 89 93 90 94 92
63 64 63 63 61 62 58 54 55 69 60 54 47 47 51 50 49 52 55 56 60 63 72 80 80 87 96 90 86 94 99 93
62 63 63 64 64 51 48 54 60 46 40 41 44 45 43 46 52 57 61 68 71 76 83 84 86 97 100 99 100 99 98 91
60 60 60 63 56 50 54 55 38 33 40 39 35 40 50 55 58 64 72 78 83 87 89 94 83 82 76 79 97 100 99 92
59 57 58 56 54 48 53 35 31 31 29 30 40 54 58 62 66 75 81 88 89 92 98 94 78 90 100 100 100 95 91 87
56 54 54 52 49 42 31 30 32 26 21 40 47 53 61 69 74 81 85 83 86 98 96 98 100 98 81 73 76 90 86 81
55 55 52 49 44 34 40 38 28 17 33 42 44 48 58 67 74 82 84 87 96 100 100 100 100 100 80 81 86 85 90 84
57 60 54 46 41 43 36 30 25 20 24 25 34 46 47 70 82 85 83 89 100 100 99 99 100 100 88 91 81 85 94 92

GFSFLT1_850_rhum_051.txt.gz
RH
54 55 55 49 52 65 92 98 82 86 83 82 81 77 65 66 66 42 45 55 55 69 77 81 71 76 79 81 79 67 60 54
61 65 66 60 71 82 95 85 83 88 87 90 84 68 79 68 68 73 75 73 80 81 71 78 78 69 75 75 69 60 54 51
70 76 81 83 89 96 97 98 95 97 81 81 81 75 66 58 68 72 74 63 56 70 58 72 74 70 62 63 68 63 56 50
68 75 88 93 95 99 97 88 88 75 67 67 67 63 64 62 69 70 77 60 56 54 64 71 69 62 56 65 65 65 61 57
64 70 78 82 79 72 65 67 69 67 62 58 59 50 52 61 67 70 73 77 79 74 70 66 69 68 69 67 62 74 68 60
51 54 58 60 67 66 66 66 63 68 65 62 63 61 67 69 72 76 70 74 69 72 64 64 70 69 67 71 74 72 69 67
42 43 48 59 68 68 66 62 65 69 70 74 72 74 69 63 59 62 56 51 48 50 56 63 64 65 68 70 71 81 77 78
39 43 47 61 67 70 67 62 66 72 76 77 74 69 61 62 61 56 54 46 46 50 58 62 62 63 68 76 84 83 82 86
40 43 46 55 62 66 63 64 66 73 73 69 66 63 59 60 60 58 57 57 59 64 66 65 65 67 70 75 83 91 93 86
41 45 50 55 62 66 66 65 66 67 68 58 64 63 61 66 62 65 62 65 57 55 63 65 64 63 63 68 72 87 86 87
43 47 54 56 63 68 74 70 64 64 62 56 61 63 64 62 63 58 58 55 53 50 51 52 54 58 59 61 70 84 95 90
46 50 57 64 69 76 75 64 59 60 55 71 66 63 53 50 51 50 49 53 51 53 56 57 62 65 63 66 79 85 80 82
48 55 62 66 68 67 61 61 67 62 73 54 48 47 47 46 42 46 50 54 59 62 64 66 68 64 65 74 82 83 88 93
52 56 58 59 59 60 66 66 53 69 52 38 39 40 39 41 44 50 54 59 64 69 71 70 70 84 95 75 95 100 97 98
51 54 55 57 62 66 60 55 56 46 37 36 33 36 44 48 52 56 60 66 72 72 71 76 88 88 95 100 98 97 97 98
50 52 53 57 60 55 53 55 46 41 40 34 32 40 48 50 55 61 67 73 72 68 72 81 96 94 99 91 94 97 93 88
49 51 52 54 52 49 51 44 41 44 36 35 37 41 45 49 55 64 67 68 67 71 87 87 97 98 94 84 72 90 85 79
50 50 51 50 47 45 40 42 44 41 38 35 37 42 46 50 51 56 65 69 70 85 91 95 95 96 94 88 76 81 87 74
50 50 50 48 44 40 43 41 39 40 38 40 42 47 53 56 60 66 68 69 74 88 93 100 82 98 96 83 85 78 82 81

GFSFLT1_850_rhum_057.txt.gz
RH
35 39 46 55 70 71 80 82 79 81 69 70 68 69 72 70 63 64 54 40 47 50 57 61 68 65 63 50 41 34 40 45
33 38 46 57 68 74 74 75 77 80 82 73 79 78 82 83 81 64 52 45 56 59 60 61 59 58 54 38 43 45 42 38
44 44 49 61 60 72 79 76 77 78 80 81 73 73 71 70 68 61 55 60 56 62 70 64 58 48 33 31 35 38 43 54
50 56 54 65 63 75 74 80 82 77 75 81 82 77 67 68 63 58 59 64 69 68 63 55 45 38 36 37 45 56 65 65
58 66 70 78 79 85 82 81 70 76 81 82 67 59 61 62 61 66 70 73 69 64 53 46 43 46 58 66 67 67 66 69
64 70 72 76 80 80 79 64 76 81 73 64 68 62 63 62 68 73 76 70 59 56 51 50 58 64 67 64 65 67 68 70
64 69 72 67 75 81 76 72 78 66 61 62 62 65 65 69 73 71 66 58 56 52 48 55 60 62 63 64 63 63 68 68
66 71 74 70 78 82 80 76 67 66 62 63 62 67 68 69 67 62 58 56 55 55 51 52 56 60 60 56 66 68 66 66
60 70 73 75 70 67 67 64 64 66 66 67 68 72 73 67 57 58 60 61 62 59 51 56 57 51 50 40 50 52 58 66
53 59 61 62 66 67 66 63 63 66 68 72 73 73 64 58 65 67 81 68 55 58 62 50 35 33 41 46 55 60 64 70
46 50 51 52 55 56 62 63 64 69 76 77 74 68 63 67 73 70 65 52 54 52 42 41 47 44 56 65 66 67 74 77
41 45 48 52 58 60 66 64 64 68 72 73 69 61 69 65 60 60 50 51 49 48 50 52 53 59 66 69 70 72 78 85
40 42 48 55 60 65 68 68 66 66 68 67 62 62 53 54 53 48 44 46 48 50 53 58 55 66 71 70 72 63 56 67
40 42 46 54 61 68 73 72 68 64 65 61 53 47 48 52 42 42 45 46 49 50 55 56 65 72 72 73 76 63 74 66
40 46 55 63 68 71 74 74 66 62 60 44 44 47 54 36 39 44 44 44 53 61 62 62 71 72 73 78 72 77 74 77
45 54 60 65 67 68 66 65 63 63 46 40 42 40 37 37 38 38 38 44 48 57 62 68 72 72 77 74 82 92 97 92
49 53 57 57 58 61 61 63 61 50 42 41 41 39 31 24 24 26 20 31 51 57 63 69 73 75 78 67 78 85 92 98
46 49 51 53 56 58 62 58 53 45 44 39 35 34 32 39 37 20 38 56 63 68 75 75 74 79 78 65 81 81 94 95
44 47 51 56 57 58 54 49 44 44 40 38 54 54 62 39 43 49 60 65 67 71 72 80 80 77 79 72 98 92 91 88